Simultaneous Nadir Overpasses (SNOs) Predictions

Prediction of SNOs between NOAA-20 and NOAA-19 Satellite Orbit:

Table of predicted SNOs for the next 14.0 days since TLE Epoch: 5/6/2018
Index Date (NOAA-20) Time (NOAA-20) Lat,Lon (NOAA-20) SZA (NOAA-20 ) Date (NOAA-19) Time (NOAA-19) Lat,Lon (NOAA-19) SZA (NOAA-19 ) Distance(km) Time Diff (sec)
1 05/07/2018 21:11:18 -80.59, -3.71 113.54 05/07/2018 21:10:15 -80.57, -3.57 113.53 2.90 63
2 05/07/2018 22:02:03 80.58, 163.62 66.45 05/07/2018 22:01:14 80.58, 163.75 66.46 2.64 49
3 05/07/2018 22:52:48 -80.59, -29.13 113.55 05/07/2018 22:52:16 -80.58, -29.00 113.56 2.73 32
4 05/07/2018 23:43:33 80.59, 138.20 66.44 05/07/2018 23:43:15 80.58, 138.32 66.43 2.38 18
5 05/08/2018 00:34:18 -80.59, -54.55 113.56 05/08/2018 00:34:17 -80.58, -54.43 113.59 2.56 1
6 05/08/2018 01:25:03 80.59, 112.78 66.43 05/08/2018 01:25:16 80.58, 112.88 66.40 2.13 13
7 05/08/2018 02:15:48 -80.59, -79.97 113.58 05/08/2018 02:16:18 -80.58, -79.86 113.61 2.39 30
8 05/08/2018 03:06:33 80.59, 87.36 66.42 05/08/2018 03:07:17 80.58, 87.44 66.38 1.90 44
9 05/08/2018 03:57:18 -80.60,-105.39 113.59 05/08/2018 03:58:19 -80.59,-105.29 113.64 2.23 61




NCC Satellite Simultaneous Nadir Overpasses (SNOs) Prediction Service
